Time,TemperatureF,DewpointF,PressureIn,WindDirection,WindDirectionDegrees,WindSpeedMPH,WindSpeedGustMPH,Humidity,HourlyPrecipIn,Conditions,Clouds,dailyrainin,SoftwareType,DateUTC
2013-03-25 00:00:00,33.8,28.3,29.52,SE,140,7.0,23.0,80,0.00,,,0.00,Wunderground v.1.13,2013-03-25 04:00:00,
2013-03-25 00:01:00,33.8,28.3,29.52,SE,140,6.0,23.0,80,0.00,,,0.00,Wunderground v.1.13,2013-03-25 04:01:00,
2013-03-25 00:02:00,33.8,28.3,29.52,ESE,123,6.0,23.0,80,0.00,,,0.00,Wunderground v.1.13,2013-03-25 04:02:00,
2013-03-25 00:03:00,33.8,28.3,29.52,SE,138,6.0,23.0,80,0.00,,,0.00,Wunderground v.1.13,2013-03-25 04:03:00,
2013-03-25 00:09:00,33.9,28.1,29.52,NE,54,6.0,6.0,79,0.00,,,0.00,Wunderground v.1.13,2013-03-25 04:09:00,
2013-03-25 00:14:00,33.9,27.8,29.51,NNE,25,8.0,8.0,78,0.00,,,0.00,Wunderground v.1.13,2013-03-25 04:14:00,
2013-03-25 00:20:00,34.0,27.9,29.51,ESE,111,8.0,24.0,78,0.00,,,0.00,Wunderground v.1.13,2013-03-25 04:20:00,
2013-03-25 00:26:00,34.0,27.9,29.52,North,355,4.0,24.0,78,0.00,,,0.00,Wunderground v.1.13,2013-03-25 04:26:00,
2013-03-25 00:32:00,34.1,28.0,29.52,NNW,348,3.0,24.0,78,0.00,,,0.00,Wunderground v.1.13,2013-03-25 04:32:00,
2013-03-25 00:38:00,34.1,27.6,29.51,North,349,2.0,24.0,77,0.00,,,0.00,Wunderground v.1.13,2013-03-25 04:38:00,
2013-03-25 00:44:00,34.1,27.6,29.51,East,87,3.0,24.0,77,0.00,,,0.00,Wunderground v.1.13,2013-03-25 04:44:00,
2013-03-25 00:49:00,34.1,28.0,29.51,North,355,4.0,4.0,78,0.00,,,0.00,Wunderground v.1.13,2013-03-25 04:49:00,
2013-03-25 00:55:00,34.0,27.9,29.52,North,360,3.0,24.0,78,0.00,,,0.00,Wunderground v.1.13,2013-03-25 04:55:00,
2013-03-25 01:02:00,33.9,27.4,29.51,NE,38,4.0,24.0,77,0.00,,,0.00,Wunderground v.1.13,2013-03-25 05:02:00,
2013-03-25 01:07:00,33.8,28.0,29.52,NNE,12,3.0,5.0,79,0.00,,,0.00,Wunderground v.1.13,2013-03-25 05:07:00,
2013-03-25 01:12:00,33.5,28.3,29.51,ENE,76,1.0,5.0,81,0.00,,,0.00,Wunderground v.1.13,2013-03-25 05:12:00,
2013-03-25 01:17:00,33.2,28.3,29.52,NNW,344,2.0,5.0,82,0.00,,,0.00,Wunderground v.1.13,2013-03-25 05:17:00,
2013-03-25 01:24:00,33.1,28.2,29.51,WNW,296,2.0,9.0,82,0.00,,,0.00,Wunderground v.1.13,2013-03-25 05:24:00,
2013-03-25 01:29:00,33.2,28.3,29.51,NW,311,2.0,2.0,82,0.00,,,0.00,Wunderground v.1.13,2013-03-25 05:29:00,
2013-03-25 01:35:00,33.2,28.3,29.52,NW,311,1.0,5.0,82,0.00,,,0.00,Wunderground v.1.13,2013-03-25 05:35:00,
2013-03-25 01:41:00,33.3,28.4,29.52,NW,309,1.0,5.0,82,0.00,,,0.00,Wunderground v.1.13,2013-03-25 05:41:00,
2013-03-25 01:47:00,33.1,28.5,29.52,WSW,248,1.0,5.0,83,0.00,,,0.00,Wunderground v.1.13,2013-03-25 05:47:00,
2013-03-25 01:54:00,32.8,28.5,29.52,WSW,251,1.0,5.0,84,0.00,,,0.00,Wunderground v.1.13,2013-03-25 05:54:00,
2013-03-25 01:59:00,32.5,28.5,29.52,WSW,251,1.0,5.0,85,0.00,,,0.00,Wunderground v.1.13,2013-03-25 05:59:00,
2013-03-25 02:05:00,32.2,28.8,29.52,West,278,1.0,5.0,87,0.00,,,0.00,Wunderground v.1.13,2013-03-25 06:05:00,
2013-03-25 02:10:00,32.0,28.8,29.52,West,279,1.0,5.0,88,0.00,,,0.00,Wunderground v.1.13,2013-03-25 06:10:00,
2013-03-25 02:16:00,31.7,28.8,29.52,West,261,1.0,5.0,89,0.00,,,0.00,Wunderground v.1.13,2013-03-25 06:16:00,
2013-03-25 02:22:00,31.6,28.7,29.52,West,261,1.0,5.0,89,0.00,,,0.00,Wunderground v.1.13,2013-03-25 06:22:00,
2013-03-25 02:27:00,31.6,29.0,29.52,West,261,1.0,5.0,90,0.00,,,0.01,Wunderground v.1.13,2013-03-25 06:27:00,
2013-03-25 02:33:00,31.5,28.9,29.52,NNW,348,2.0,5.0,90,0.00,,,0.01,Wunderground v.1.13,2013-03-25 06:33:00,
2013-03-25 02:38:00,31.4,29.1,29.52,NNE,20,2.0,5.0,91,0.00,,,0.01,Wunderground v.1.13,2013-03-25 06:38:00,
2013-03-25 02:44:00,31.4,29.1,29.52,NNE,17,1.0,5.0,91,0.00,,,0.01,Wunderground v.1.13,2013-03-25 06:44:00,
2013-03-25 02:49:00,31.3,29.0,29.51,ESE,103,1.0,5.0,91,0.00,,,0.01,Wunderground v.1.13,2013-03-25 06:49:00,
2013-03-25 02:54:00,31.3,29.2,29.52,NNW,344,2.0,5.0,92,0.00,,,0.01,Wunderground v.1.13,2013-03-25 06:54:00,
2013-03-25 03:00:00,31.3,29.2,29.52,ENE,74,2.0,5.0,92,0.00,,,0.01,Wunderground v.1.13,2013-03-25 07:00:00,
2013-03-25 03:06:00,31.3,29.2,29.51,NE,37,2.0,10.0,92,0.00,,,0.01,Wunderground v.1.13,2013-03-25 07:06:00,
2013-03-25 03:12:00,31.4,29.3,29.51,SSW,197,3.0,10.0,92,0.00,,,0.01,Wunderground v.1.13,2013-03-25 07:12:00,
2013-03-25 03:17:00,31.4,29.1,29.51,NNE,29,2.0,10.0,91,0.00,,,0.01,Wunderground v.1.13,2013-03-25 07:17:00,
2013-03-25 03:23:00,31.5,29.2,29.50,ENE,58,1.0,10.0,91,0.00,,,0.01,Wunderground v.1.13,2013-03-25 07:23:00,
2013-03-25 03:29:00,31.5,29.2,29.50,East,81,3.0,10.0,91,0.00,,,0.01,Wunderground v.1.13,2013-03-25 07:29:00,
2013-03-25 03:35:00,31.6,29.0,29.50,NE,34,3.0,10.0,90,0.00,,,0.01,Wunderground v.1.13,2013-03-25 07:35:00,
2013-03-25 03:40:00,31.6,29.0,29.50,ENE,76,2.0,5.0,90,0.00,,,0.01,Wunderground v.1.13,2013-03-25 07:40:00,
2013-03-25 03:46:00,31.6,29.0,29.49,SE,139,2.0,10.0,90,0.00,,,0.01,Wunderground v.1.13,2013-03-25 07:46:00,
2013-03-25 03:52:00,31.6,29.0,29.49,ENE,77,3.0,10.0,90,0.00,,,0.01,Wunderground v.1.13,2013-03-25 07:52:00,
2013-03-25 03:58:00,31.6,29.0,29.49,SSE,150,4.0,10.0,90,0.00,,,0.01,Wunderground v.1.13,2013-03-25 07:58:00,
2013-03-25 04:04:00,31.5,28.9,29.49,South,179,4.0,10.0,90,0.00,,,0.01,Wunderground v.1.13,2013-03-25 08:04:00,
2013-03-25 04:09:00,31.5,28.9,29.49,NE,36,2.0,5.0,90,0.00,,,0.01,Wunderground v.1.13,2013-03-25 08:09:00,
2013-03-25 04:14:00,31.5,28.9,29.49,ENE,78,2.0,2.0,90,0.00,,,0.01,Wunderground v.1.13,2013-03-25 08:14:00,
2013-03-25 04:20:00,31.5,28.9,29.49,ESE,115,2.0,5.0,90,0.00,,,0.01,Wunderground v.1.13,2013-03-25 08:20:00,
2013-03-25 04:25:00,31.5,28.9,29.49,East,85,3.0,7.0,90,0.00,,,0.01,Wunderground v.1.13,2013-03-25 08:25:00,
2013-03-25 04:31:00,31.5,28.9,29.48,SSE,150,3.0,6.0,90,0.00,,,0.01,Wunderground v.1.13,2013-03-25 08:31:00,
2013-03-25 04:36:00,31.5,28.9,29.48,ESE,121,2.0,5.0,90,0.00,,,0.01,Wunderground v.1.13,2013-03-25 08:36:00,
2013-03-25 04:41:00,31.5,28.9,29.48,NE,43,2.0,7.0,90,0.00,,,0.01,Wunderground v.1.13,2013-03-25 08:41:00,
2013-03-25 04:46:00,31.5,28.9,29.48,SE,140,4.0,8.0,90,0.00,,,0.01,Wunderground v.1.13,2013-03-25 08:46:00,
2013-03-25 04:52:00,31.5,28.9,29.47,ENE,58,3.0,5.0,90,0.00,,,0.01,Wunderground v.1.13,2013-03-25 08:52:00,
2013-03-25 04:57:00,31.5,28.6,29.48,ENE,62,2.0,5.0,89,0.00,,,0.01,Wunderground v.1.13,2013-03-25 08:57:00,
2013-03-25 05:02:00,31.5,28.6,29.47,SE,138,2.0,6.0,89,0.00,,,0.01,Wunderground v.1.13,2013-03-25 09:02:00,
2013-03-25 05:08:00,31.5,28.6,29.47,ESE,111,2.0,2.0,89,0.00,,,0.01,Wunderground v.1.13,2013-03-25 09:08:00,
2013-03-25 05:14:00,31.6,28.7,29.47,East,93,2.0,2.0,89,0.00,,,0.01,Wunderground v.1.13,2013-03-25 09:14:00,
2013-03-25 05:19:00,31.6,28.5,29.47,East,84,3.0,6.0,88,0.00,,,0.01,Wunderground v.1.13,2013-03-25 09:19:00,
2013-03-25 05:25:00,31.7,28.6,29.47,South,187,4.0,5.0,88,0.00,,,0.01,Wunderground v.1.13,2013-03-25 09:25:00,
2013-03-25 05:30:00,31.9,28.5,29.47,West,269,3.0,4.0,87,0.00,,,0.01,Wunderground v.1.13,2013-03-25 09:30:00,
2013-03-25 05:36:00,31.9,28.5,29.47,ENE,59,3.0,3.0,87,0.00,,,0.01,Wunderground v.1.13,2013-03-25 09:36:00,
2013-03-25 05:41:00,31.9,28.5,29.47,NNW,336,3.0,8.0,87,0.00,,,0.01,Wunderground v.1.13,2013-03-25 09:41:00,
2013-03-25 05:47:00,31.8,28.1,29.47,NW,304,2.0,2.0,86,0.00,,,0.01,Wunderground v.1.13,2013-03-25 09:47:00,
2013-03-25 05:52:00,31.8,28.4,29.47,South,191,1.0,5.0,87,0.00,,,0.01,Wunderground v.1.13,2013-03-25 09:52:00,
2013-03-25 05:58:00,31.7,28.3,29.47,WSW,242,2.0,2.0,87,0.00,,,0.01,Wunderground v.1.13,2013-03-25 09:58:00,
2013-03-25 06:03:00,31.6,28.5,29.47,ENE,70,2.0,3.0,88,0.00,,,0.01,Wunderground v.1.13,2013-03-25 10:03:00,
2013-03-25 06:09:00,31.5,28.4,29.46,SSW,211,2.0,3.0,88,0.00,,,0.01,Wunderground v.1.13,2013-03-25 10:09:00,
2013-03-25 06:15:00,31.6,28.5,29.46,SE,146,3.0,3.0,88,0.00,,,0.01,Wunderground v.1.13,2013-03-25 10:15:00,
2013-03-25 06:21:00,31.6,28.5,29.46,SE,142,2.0,3.0,88,0.00,,,0.01,Wunderground v.1.13,2013-03-25 10:21:00,
2013-03-25 06:26:00,31.6,28.2,29.46,East,86,2.0,8.0,87,0.00,,,0.01,Wunderground v.1.13,2013-03-25 10:26:00,
2013-03-25 06:32:00,31.7,28.3,29.46,East,80,2.0,3.0,87,0.00,,,0.01,Wunderground v.1.13,2013-03-25 10:32:00,
2013-03-25 06:37:00,31.7,28.3,29.46,NW,321,1.0,3.0,87,0.00,,,0.01,Wunderground v.1.13,2013-03-25 10:37:00,
2013-03-25 06:43:00,31.6,28.2,29.46,NNW,336,1.0,5.0,87,0.00,,,0.01,Wunderground v.1.13,2013-03-25 10:43:00,
2013-03-25 06:48:00,31.6,28.5,29.46,NNW,341,2.0,4.0,88,0.00,,,0.01,Wunderground v.1.13,2013-03-25 10:48:00,
2013-03-25 06:53:00,31.6,28.5,29.47,NNW,340,2.0,4.0,88,0.00,,,0.01,Wunderground v.1.13,2013-03-25 10:53:00,
2013-03-25 06:59:00,31.7,28.6,29.47,West,281,1.0,1.0,88,0.00,,,0.01,Wunderground v.1.13,2013-03-25 10:59:00,
2013-03-25 07:05:00,31.6,28.5,29.47,WNW,283,1.0,1.0,88,0.00,,,0.01,Wunderground v.1.13,2013-03-25 11:05:00,
2013-03-25 07:10:00,31.4,28.3,29.46,WNW,283,0.0,1.0,88,0.00,,,0.01,Wunderground v.1.13,2013-03-25 11:10:00,
2013-03-25 07:16:00,31.3,28.4,29.47,WNW,283,0.0,0.0,89,0.00,,,0.01,Wunderground v.1.13,2013-03-25 11:16:00,
2013-03-25 07:22:00,31.2,28.6,29.47,WNW,283,0.0,0.0,90,0.00,,,0.01,Wunderground v.1.13,2013-03-25 11:22:00,
2013-03-25 07:28:00,31.2,28.6,29.47,WNW,283,0.0,0.0,90,0.00,,,0.01,Wunderground v.1.13,2013-03-25 11:28:00,
2013-03-25 07:35:00,31.2,28.6,29.47,WNW,283,0.0,0.0,90,0.00,,,0.01,Wunderground v.1.13,2013-03-25 11:35:00,
2013-03-25 07:40:00,31.2,28.9,29.47,WNW,283,0.0,0.0,91,0.00,,,0.01,Wunderground v.1.13,2013-03-25 11:40:00,
2013-03-25 07:46:00,31.3,29.0,29.47,WNW,283,0.0,0.0,91,0.00,,,0.01,Wunderground v.1.13,2013-03-25 11:46:00,
2013-03-25 07:51:00,31.4,29.1,29.47,WNW,283,0.0,0.0,91,0.00,,,0.01,Wunderground v.1.13,2013-03-25 11:51:00,
2013-03-25 07:57:00,31.5,28.9,29.47,WNW,283,0.0,1.0,90,0.00,,,0.01,Wunderground v.1.13,2013-03-25 11:57:00,
2013-03-25 08:03:00,31.5,29.2,29.47,WNW,283,0.0,1.0,91,0.00,,,0.01,Wunderground v.1.13,2013-03-25 12:03:00,
2013-03-25 08:10:00,31.7,29.1,29.47,WNW,283,1.0,2.0,90,0.00,,,0.01,Wunderground v.1.13,2013-03-25 12:10:00,
2013-03-25 08:15:00,31.9,29.0,29.47,WNW,283,1.0,3.0,89,0.00,,,0.01,Wunderground v.1.13,2013-03-25 12:15:00,
2013-03-25 08:20:00,32.1,29.2,29.47,WNW,283,0.0,2.0,89,0.00,,,0.01,Wunderground v.1.13,2013-03-25 12:20:00,
2013-03-25 08:25:00,32.4,29.2,29.47,WNW,283,0.0,2.0,88,0.00,,,0.01,Wunderground v.1.13,2013-03-25 12:25:00,
2013-03-25 08:30:00,32.5,29.1,29.48,West,275,0.0,3.0,87,0.00,,,0.01,Wunderground v.1.13,2013-03-25 12:30:00,
2013-03-25 08:36:00,32.6,28.9,29.48,SSE,165,2.0,2.0,86,0.00,,,0.01,Wunderground v.1.13,2013-03-25 12:36:00,
2013-03-25 08:42:00,32.7,28.7,29.48,South,169,3.0,4.0,85,0.00,,,0.01,Wunderground v.1.13,2013-03-25 12:42:00,
2013-03-25 08:48:00,32.8,28.8,29.48,South,169,2.0,4.0,85,0.00,,,0.00,Wunderground v.1.13,2013-03-25 12:48:00,
2013-03-25 08:53:00,32.9,28.6,29.48,South,169,1.0,4.0,84,0.00,,,0.00,Wunderground v.1.13,2013-03-25 12:53:00,
2013-03-25 08:59:00,32.9,28.9,29.48,South,169,0.0,2.0,85,0.00,,,0.00,Wunderground v.1.13,2013-03-25 12:59:00,
2013-03-25 09:05:00,32.9,29.2,29.48,South,169,0.0,1.0,86,0.00,,,0.00,Wunderground v.1.13,2013-03-25 13:05:00,
2013-03-25 09:10:00,33.0,29.3,29.48,South,169,0.0,1.0,86,0.00,,,0.00,Wunderground v.1.13,2013-03-25 13:10:00,
2013-03-25 09:15:00,32.9,29.2,29.48,South,169,0.0,1.0,86,0.00,,,0.00,Wunderground v.1.13,2013-03-25 13:15:00,
2013-03-25 09:20:00,32.9,29.2,29.48,South,169,0.0,1.0,86,0.00,,,0.00,Wunderground v.1.13,2013-03-25 13:20:00,
2013-03-25 09:26:00,33.0,29.6,29.48,South,169,0.0,2.0,87,0.00,,,0.00,Wunderground v.1.13,2013-03-25 13:26:00,
2013-03-25 09:32:00,33.0,29.6,29.48,East,96,2.0,7.0,87,0.00,,,0.00,Wunderground v.1.13,2013-03-25 13:32:00,
2013-03-25 09:38:00,33.1,31.0,29.48,East,94,2.0,3.0,92,0.00,,,0.00,Wunderground v.1.13,2013-03-25 13:38:00,
2013-03-25 09:44:00,33.2,29.5,29.48,East,94,1.0,2.0,86,0.00,,,0.00,Wunderground v.1.13,2013-03-25 13:44:00,
2013-03-25 09:49:00,33.1,29.4,29.48,East,94,1.0,1.0,86,0.00,,,0.00,Wunderground v.1.13,2013-03-25 13:49:00,
2013-03-25 09:55:00,33.2,29.5,29.48,East,94,1.0,2.0,86,0.00,,,0.00,Wunderground v.1.13,2013-03-25 13:55:00,
2013-03-25 10:00:00,33.3,29.6,29.48,East,94,1.0,1.0,86,0.00,,,0.00,Wunderground v.1.13,2013-03-25 14:00:00,
2013-03-25 10:05:00,33.3,29.8,29.48,East,94,0.0,2.0,87,0.00,,,0.00,Wunderground v.1.13,2013-03-25 14:05:00,
2013-03-25 10:10:00,33.2,30.0,29.48,East,82,1.0,2.0,88,0.00,,,0.00,Wunderground v.1.13,2013-03-25 14:10:00,
2013-03-25 10:16:00,33.2,29.8,29.48,East,82,1.0,2.0,87,0.00,,,0.00,Wunderground v.1.13,2013-03-25 14:16:00,
2013-03-25 10:21:00,33.4,30.2,29.48,East,82,0.0,2.0,88,0.00,,,0.00,Wunderground v.1.13,2013-03-25 14:21:00,
2013-03-25 10:27:00,33.3,30.4,29.48,East,82,0.0,2.0,89,0.00,,,0.00,Wunderground v.1.13,2013-03-25 14:27:00,
2013-03-25 10:32:00,33.3,30.4,29.48,East,82,0.0,2.0,89,0.00,,,0.00,Wunderground v.1.13,2013-03-25 14:32:00,
2013-03-25 10:38:00,33.4,30.5,29.48,East,82,0.0,2.0,89,0.00,,,0.00,Wunderground v.1.13,2013-03-25 14:38:00,
2013-03-25 10:43:00,33.3,30.4,29.49,East,82,0.0,2.0,89,0.00,,,0.00,Wunderground v.1.13,2013-03-25 14:43:00,
2013-03-25 10:48:00,33.3,30.7,29.49,East,82,0.0,2.0,90,0.00,,,0.00,Wunderground v.1.13,2013-03-25 14:48:00,
2013-03-25 10:54:00,33.6,31.0,29.49,East,82,0.0,2.0,90,0.00,,,0.00,Wunderground v.1.13,2013-03-25 14:54:00,
2013-03-25 11:00:00,33.8,30.9,29.49,East,82,0.0,2.0,89,0.00,,,0.00,Wunderground v.1.13,2013-03-25 15:00:00,
2013-03-25 11:05:00,34.0,31.1,29.49,East,82,0.0,0.0,89,0.00,,,0.00,Wunderground v.1.13,2013-03-25 15:05:00,
2013-03-25 11:10:00,34.1,30.9,29.49,East,82,0.0,0.0,88,0.00,,,0.00,Wunderground v.1.13,2013-03-25 15:10:00,
2013-03-25 11:16:00,34.0,30.8,29.49,East,82,0.0,0.0,88,0.00,,,0.00,Wunderground v.1.13,2013-03-25 15:16:00,
2013-03-25 11:21:00,34.0,31.1,29.49,East,82,0.0,0.0,89,0.00,,,0.00,Wunderground v.1.13,2013-03-25 15:21:00,
2013-03-25 11:26:00,34.1,31.2,29.49,East,82,0.0,0.0,89,0.00,,,0.00,Wunderground v.1.13,2013-03-25 15:26:00,
2013-03-25 11:32:00,34.2,31.0,29.49,East,82,0.0,0.0,88,0.00,,,0.00,Wunderground v.1.13,2013-03-25 15:32:00,
2013-03-25 11:38:00,34.2,31.0,29.49,East,82,0.0,0.0,88,0.00,,,0.00,Wunderground v.1.13,2013-03-25 15:38:00,
2013-03-25 11:44:00,34.5,31.6,29.49,East,82,0.0,0.0,89,0.00,,,0.00,Wunderground v.1.13,2013-03-25 15:44:00,
2013-03-25 11:49:00,34.5,31.6,29.49,East,82,0.0,0.0,89,0.00,,,0.00,Wunderground v.1.13,2013-03-25 15:49:00,
2013-03-25 11:55:00,34.2,31.3,29.50,East,82,0.0,1.0,89,0.00,,,0.00,Wunderground v.1.13,2013-03-25 15:55:00,
2013-03-25 12:00:00,34.0,31.1,29.50,East,82,0.0,0.0,89,0.00,,,0.00,Wunderground v.1.13,2013-03-25 16:00:00,
2013-03-25 12:05:00,33.9,31.3,29.50,East,82,0.0,0.0,90,0.00,,,0.00,Wunderground v.1.13,2013-03-25 16:05:00,
2013-03-25 12:11:00,34.3,31.7,29.50,East,82,0.0,0.0,90,0.00,,,0.00,Wunderground v.1.13,2013-03-25 16:11:00,
2013-03-25 12:17:00,34.6,32.0,29.50,East,82,0.0,0.0,90,0.00,,,0.00,Wunderground v.1.13,2013-03-25 16:17:00,
2013-03-25 12:23:00,34.6,31.7,29.50,East,82,0.0,2.0,89,0.00,,,0.00,Wunderground v.1.13,2013-03-25 16:23:00,
2013-03-25 12:29:00,34.7,31.8,29.50,East,82,0.0,0.0,89,0.00,,,0.00,Wunderground v.1.13,2013-03-25 16:29:00,
2013-03-25 12:34:00,34.8,31.9,29.50,East,82,0.0,0.0,89,0.00,,,0.00,Wunderground v.1.13,2013-03-25 16:34:00,
2013-03-25 12:40:00,34.8,31.9,29.50,East,82,0.0,1.0,89,0.00,,,0.00,Wunderground v.1.13,2013-03-25 16:40:00,
2013-03-25 12:45:00,34.7,31.8,29.50,East,82,0.0,0.0,89,0.00,,,0.00,Wunderground v.1.13,2013-03-25 16:45:00,
2013-03-25 12:50:00,34.5,31.6,29.50,East,82,0.0,0.0,89,0.00,,,0.00,Wunderground v.1.13,2013-03-25 16:50:00,
2013-03-25 12:55:00,34.5,31.9,29.50,East,82,0.0,0.0,90,0.00,,,0.00,Wunderground v.1.13,2013-03-25 16:55:00,
2013-03-25 13:02:00,34.2,31.6,29.50,East,82,0.0,0.0,90,0.00,,,0.00,Wunderground v.1.13,2013-03-25 17:02:00,
2013-03-25 13:08:00,34.0,31.6,29.51,East,82,0.0,0.0,91,0.00,,,0.00,Wunderground v.1.13,2013-03-25 17:08:00,
2013-03-25 13:14:00,34.1,32.0,29.51,East,82,0.0,0.0,92,0.00,,,0.00,Wunderground v.1.13,2013-03-25 17:14:00,
2013-03-25 13:19:00,34.0,31.6,29.51,East,82,0.0,0.0,91,0.00,,,0.00,Wunderground v.1.13,2013-03-25 17:19:00,
2013-03-25 13:25:00,34.1,32.0,29.51,East,82,0.0,0.0,92,0.00,,,0.00,Wunderground v.1.13,2013-03-25 17:25:00,
2013-03-25 13:30:00,34.2,32.1,29.51,East,82,0.0,0.0,92,0.00,,,0.00,Wunderground v.1.13,2013-03-25 17:30:00,
2013-03-25 13:35:00,34.2,32.1,29.51,East,82,0.0,1.0,92,0.00,,,0.00,Wunderground v.1.13,2013-03-25 17:35:00,
2013-03-25 13:41:00,34.7,32.9,29.51,East,82,0.0,1.0,93,0.00,,,0.00,Wunderground v.1.13,2013-03-25 17:41:00,
2013-03-25 13:47:00,35.0,33.2,29.51,East,82,0.0,0.0,93,0.00,,,0.00,Wunderground v.1.13,2013-03-25 17:47:00,
2013-03-25 13:53:00,35.1,33.0,29.51,East,82,0.0,2.0,92,0.00,,,0.00,Wunderground v.1.13,2013-03-25 17:53:00,
2013-03-25 13:59:00,35.3,33.2,29.51,East,82,0.0,3.0,92,0.00,,,0.00,Wunderground v.1.13,2013-03-25 17:59:00,
2013-03-25 14:05:00,35.7,33.3,29.51,East,82,0.0,3.0,91,0.00,,,0.00,Wunderground v.1.13,2013-03-25 18:05:00,
2013-03-25 14:10:00,35.8,32.9,29.51,East,82,0.0,3.0,89,0.00,,,0.00,Wunderground v.1.13,2013-03-25 18:10:00,
2013-03-25 14:17:00,36.3,33.1,29.51,SSW,211,1.0,3.0,88,0.00,,,0.00,Wunderground v.1.13,2013-03-25 18:17:00,
2013-03-25 14:23:00,36.3,33.1,29.50,SSW,211,0.0,3.0,88,0.00,,,0.00,Wunderground v.1.13,2013-03-25 18:23:00,
2013-03-25 14:29:00,35.9,32.4,29.51,SW,214,1.0,1.0,87,0.00,,,0.00,Wunderground v.1.13,2013-03-25 18:29:00,
2013-03-25 14:35:00,35.4,32.5,29.51,SW,214,0.0,3.0,89,0.00,,,0.00,Wunderground v.1.13,2013-03-25 18:35:00,
2013-03-25 14:40:00,35.6,33.0,29.51,SW,215,0.0,3.0,90,0.00,,,0.00,Wunderground v.1.13,2013-03-25 18:40:00,
2013-03-25 14:46:00,35.9,33.0,29.51,SW,219,1.0,3.0,89,0.00,,,0.00,Wunderground v.1.13,2013-03-25 18:46:00,
2013-03-25 14:52:00,35.7,32.8,29.51,West,259,2.0,5.0,89,0.00,,,0.00,Wunderground v.1.13,2013-03-25 18:52:00,
2013-03-25 14:58:00,35.8,32.6,29.51,SW,221,1.0,3.0,88,0.00,,,0.00,Wunderground v.1.13,2013-03-25 18:58:00,
2013-03-25 15:05:00,36.0,33.1,29.51,SW,221,1.0,1.0,89,0.00,,,0.00,Wunderground v.1.13,2013-03-25 19:05:00,
2013-03-25 15:10:00,35.9,33.0,29.51,SW,221,0.0,2.0,89,0.00,,,0.00,Wunderground v.1.13,2013-03-25 19:10:00,
2013-03-25 15:15:00,36.0,32.8,29.51,SW,221,1.0,1.0,88,0.00,,,0.00,Wunderground v.1.13,2013-03-25 19:15:00,
2013-03-25 15:20:00,36.2,33.0,29.51,SW,221,1.0,4.0,88,0.00,,,0.00,Wunderground v.1.13,2013-03-25 19:20:00,
2013-03-25 15:26:00,36.2,32.7,29.51,SW,221,0.0,0.0,87,0.00,,,0.00,Wunderground v.1.13,2013-03-25 19:26:00,
2013-03-25 15:31:00,36.3,32.8,29.52,SSW,201,1.0,2.0,87,0.00,,,0.00,Wunderground v.1.13,2013-03-25 19:31:00,
2013-03-25 15:36:00,36.5,32.7,29.52,SSW,207,1.0,4.0,86,0.00,,,0.00,Wunderground v.1.13,2013-03-25 19:36:00,
2013-03-25 15:42:00,36.7,32.6,29.52,SSW,212,1.0,2.0,85,0.00,,,0.00,Wunderground v.1.13,2013-03-25 19:42:00,
2013-03-25 15:48:00,36.7,32.6,29.52,SSW,212,1.0,2.0,85,0.00,,,0.00,Wunderground v.1.13,2013-03-25 19:48:00,
2013-03-25 15:53:00,36.7,32.9,29.52,SW,232,1.0,3.0,86,0.00,,,0.00,Wunderground v.1.13,2013-03-25 19:53:00,
2013-03-25 15:59:00,36.7,32.3,29.52,SW,220,2.0,2.0,84,0.00,,,0.00,Wunderground v.1.13,2013-03-25 19:59:00,
2013-03-25 16:05:00,36.7,32.3,29.52,SW,230,2.0,2.0,84,0.00,,,0.00,Wunderground v.1.13,2013-03-25 20:05:00,
2013-03-25 16:11:00,36.6,32.5,29.52,SW,229,1.0,1.0,85,0.00,,,0.00,Wunderground v.1.13,2013-03-25 20:11:00,
2013-03-25 16:16:00,36.4,32.6,29.52,SW,236,1.0,3.0,86,0.00,,,0.00,Wunderground v.1.13,2013-03-25 20:16:00,
2013-03-25 16:22:00,36.2,32.7,29.53,West,276,2.0,2.0,87,0.00,,,0.00,Wunderground v.1.13,2013-03-25 20:22:00,
2013-03-25 16:28:00,36.1,32.3,29.53,West,261,2.0,5.0,86,0.00,,,0.00,Wunderground v.1.13,2013-03-25 20:28:00,
2013-03-25 16:34:00,36.0,32.2,29.53,SW,227,1.0,2.0,86,0.00,,,0.00,Wunderground v.1.13,2013-03-25 20:34:00,
2013-03-25 16:39:00,35.8,32.3,29.53,SW,227,1.0,2.0,87,0.00,,,0.00,Wunderground v.1.13,2013-03-25 20:39:00,
2013-03-25 16:44:00,35.9,32.4,29.54,WSW,242,1.0,1.0,87,0.00,,,0.00,Wunderground v.1.13,2013-03-25 20:44:00,
2013-03-25 16:49:00,36.0,32.5,29.54,WSW,242,1.0,1.0,87,0.00,,,0.00,Wunderground v.1.13,2013-03-25 20:49:00,
2013-03-25 16:54:00,36.1,32.9,29.54,WSW,242,0.0,0.0,88,0.00,,,0.00,Wunderground v.1.13,2013-03-25 20:54:00,
2013-03-25 17:00:00,36.0,33.1,29.54,WSW,242,0.0,0.0,89,0.00,,,0.00,Wunderground v.1.13,2013-03-25 21:00:00,
2013-03-25 17:06:00,35.8,32.9,29.55,WSW,242,0.0,0.0,89,0.00,,,0.00,Wunderground v.1.13,2013-03-25 21:06:00,
2013-03-25 17:11:00,35.7,33.1,29.55,WSW,242,0.0,0.0,90,0.00,,,0.00,Wunderground v.1.13,2013-03-25 21:11:00,
2013-03-25 17:17:00,35.6,33.0,29.55,WSW,242,0.0,0.0,90,0.00,,,0.00,Wunderground v.1.13,2013-03-25 21:17:00,
2013-03-25 17:22:00,35.6,33.0,29.55,WSW,242,0.0,2.0,90,0.00,,,0.00,Wunderground v.1.13,2013-03-25 21:22:00,
2013-03-25 17:28:00,35.6,33.0,29.55,WSW,242,0.0,0.0,90,0.00,,,0.00,Wunderground v.1.13,2013-03-25 21:28:00,
2013-03-25 17:34:00,35.6,33.2,29.56,WSW,242,0.0,0.0,91,0.00,,,0.00,Wunderground v.1.13,2013-03-25 21:34:00,
2013-03-25 17:39:00,35.7,33.3,29.56,WSW,242,0.0,0.0,91,0.00,,,0.00,Wunderground v.1.13,2013-03-25 21:39:00,
2013-03-25 17:45:00,35.7,33.3,29.56,WSW,242,0.0,0.0,91,0.00,,,0.00,Wunderground v.1.13,2013-03-25 21:45:00,
2013-03-25 17:51:00,35.6,33.0,29.57,WSW,242,0.0,0.0,90,0.00,,,0.00,Wunderground v.1.13,2013-03-25 21:51:00,
2013-03-25 17:57:00,35.5,32.9,29.57,WSW,242,0.0,0.0,90,0.00,,,0.00,Wunderground v.1.13,2013-03-25 21:57:00,
2013-03-25 18:02:00,35.4,32.8,29.57,WSW,242,0.0,0.0,90,0.00,,,0.00,Wunderground v.1.13,2013-03-25 22:02:00,
2013-03-25 18:08:00,35.2,32.8,29.57,WSW,242,0.0,0.0,91,0.00,,,0.00,Wunderground v.1.13,2013-03-25 22:08:00,
2013-03-25 18:14:00,35.2,32.8,29.57,WSW,242,0.0,0.0,91,0.00,,,0.00,Wunderground v.1.13,2013-03-25 22:14:00,
2013-03-25 18:20:00,35.2,33.1,29.58,WSW,242,0.0,0.0,92,0.00,,,0.00,Wunderground v.1.13,2013-03-25 22:20:00,
2013-03-25 18:25:00,35.1,33.0,29.58,WSW,242,0.0,0.0,92,0.00,,,0.00,Wunderground v.1.13,2013-03-25 22:25:00,
2013-03-25 18:30:00,35.0,32.9,29.59,WSW,242,0.0,2.0,92,0.00,,,0.00,Wunderground v.1.13,2013-03-25 22:30:00,
2013-03-25 18:37:00,35.1,33.3,29.59,WSW,242,0.0,0.0,93,0.00,,,0.00,Wunderground v.1.13,2013-03-25 22:37:00,
2013-03-25 18:42:00,35.0,33.2,29.59,WSW,242,0.0,0.0,93,0.00,,,0.00,Wunderground v.1.13,2013-03-25 22:42:00,
2013-03-25 18:48:00,35.0,33.2,29.60,WSW,242,0.0,0.0,93,0.00,,,0.00,Wunderground v.1.13,2013-03-25 22:48:00,
2013-03-25 18:54:00,35.0,33.2,29.60,WSW,242,0.0,0.0,93,0.00,,,0.00,Wunderground v.1.13,2013-03-25 22:54:00,
2013-03-25 19:00:00,34.9,33.1,29.60,WSW,242,0.0,0.0,93,0.00,,,0.00,Wunderground v.1.13,2013-03-25 23:00:00,
2013-03-25 19:04:00,34.8,33.0,29.60,WSW,242,0.0,0.0,93,0.00,,,0.00,Wunderground v.1.13,2013-03-25 23:04:00,
2013-03-25 19:10:00,34.7,32.9,29.61,WSW,242,0.0,0.0,93,0.00,,,0.00,Wunderground v.1.13,2013-03-25 23:10:00,
2013-03-25 19:15:00,34.7,32.9,29.61,WSW,242,0.0,0.0,93,0.00,,,0.00,Wunderground v.1.13,2013-03-25 23:15:00,
2013-03-25 19:20:00,34.6,32.8,29.61,WSW,242,0.0,0.0,93,0.00,,,0.00,Wunderground v.1.13,2013-03-25 23:20:00,
2013-03-25 19:26:00,34.4,32.6,29.62,WSW,242,0.0,0.0,93,0.00,,,0.00,Wunderground v.1.13,2013-03-25 23:26:00,
2013-03-25 19:32:00,34.3,32.5,29.62,WSW,242,0.0,0.0,93,0.00,,,0.00,Wunderground v.1.13,2013-03-25 23:32:00,
2013-03-25 19:37:00,34.1,32.3,29.62,WSW,242,0.0,0.0,93,0.00,,,0.00,Wunderground v.1.13,2013-03-25 23:37:00,
2013-03-25 19:43:00,34.0,32.2,29.63,WSW,242,0.0,0.0,93,0.00,,,0.00,Wunderground v.1.13,2013-03-25 23:43:00,
2013-03-25 19:49:00,33.9,32.4,29.63,WSW,242,0.0,0.0,94,0.00,,,0.00,Wunderground v.1.13,2013-03-25 23:49:00,
2013-03-25 19:55:00,33.8,32.3,29.63,WSW,242,0.0,0.0,94,0.00,,,0.00,Wunderground v.1.13,2013-03-25 23:55:00,
2013-03-25 20:01:00,33.7,32.2,29.63,WSW,242,0.0,0.0,94,0.00,,,0.00,Wunderground v.1.13,2013-03-26 00:01:00,
2013-03-25 20:07:00,33.6,32.1,29.64,WSW,242,0.0,0.0,94,0.00,,,0.00,Wunderground v.1.13,2013-03-26 00:07:00,
2013-03-25 20:13:00,33.5,32.0,29.64,WSW,242,0.0,0.0,94,0.00,,,0.00,Wunderground v.1.13,2013-03-26 00:13:00,
2013-03-25 20:19:00,33.5,32.0,29.64,WSW,242,0.0,0.0,94,0.00,,,0.00,Wunderground v.1.13,2013-03-26 00:19:00,
2013-03-25 20:24:00,33.5,32.0,29.65,WSW,242,0.0,0.0,94,0.00,,,0.00,Wunderground v.1.13,2013-03-26 00:24:00,
2013-03-25 20:30:00,33.5,32.0,29.65,WSW,242,0.0,0.0,94,0.00,,,0.00,Wunderground v.1.13,2013-03-26 00:30:00,
2013-03-25 20:37:00,33.4,31.9,29.65,WSW,242,0.0,0.0,94,0.00,,,0.00,Wunderground v.1.13,2013-03-26 00:37:00,
2013-03-25 20:43:00,33.4,31.9,29.65,WSW,242,0.0,0.0,94,0.00,,,0.00,Wunderground v.1.13,2013-03-26 00:43:00,
2013-03-25 20:48:00,33.4,31.9,29.65,WSW,242,0.0,2.0,94,0.00,,,0.00,Wunderground v.1.13,2013-03-26 00:48:00,
2013-03-25 20:54:00,33.4,32.1,29.66,WSW,242,0.0,0.0,95,0.00,,,0.00,Wunderground v.1.13,2013-03-26 00:54:00,
2013-03-25 21:00:00,33.3,32.0,29.66,WSW,242,0.0,1.0,95,0.00,,,0.00,Wunderground v.1.13,2013-03-26 01:00:00,
2013-03-25 21:06:00,33.4,32.1,29.66,WSW,242,0.0,4.0,95,0.00,,,0.00,Wunderground v.1.13,2013-03-26 01:06:00,
2013-03-25 21:12:00,33.4,32.1,29.66,WSW,242,0.0,4.0,95,0.00,,,0.00,Wunderground v.1.13,2013-03-26 01:12:00,
2013-03-25 21:17:00,33.5,32.2,29.67,WSW,242,0.0,4.0,95,0.00,,,0.00,Wunderground v.1.13,2013-03-26 01:17:00,
2013-03-25 21:23:00,33.4,32.1,29.67,WSW,242,0.0,4.0,95,0.00,,,0.00,Wunderground v.1.13,2013-03-26 01:23:00,
2013-03-25 21:28:00,33.4,32.1,29.67,WSW,242,0.0,4.0,95,0.00,,,0.00,Wunderground v.1.13,2013-03-26 01:28:00,
2013-03-25 21:33:00,33.4,32.1,29.68,WSW,242,0.0,4.0,95,0.00,,,0.00,Wunderground v.1.13,2013-03-26 01:33:00,
2013-03-25 21:39:00,33.4,32.1,29.68,WSW,241,1.0,1.0,95,0.00,,,0.00,Wunderground v.1.13,2013-03-26 01:39:00,
2013-03-25 21:44:00,33.4,32.1,29.68,WSW,241,1.0,1.0,95,0.00,,,0.00,Wunderground v.1.13,2013-03-26 01:44:00,
2013-03-25 21:49:00,33.3,32.0,29.68,WSW,241,0.0,4.0,95,0.00,,,0.00,Wunderground v.1.13,2013-03-26 01:49:00,
2013-03-25 21:54:00,33.3,32.0,29.68,WSW,241,0.0,4.0,95,0.00,,,0.00,Wunderground v.1.13,2013-03-26 01:54:00,
2013-03-25 22:01:00,33.3,32.0,29.68,WSW,241,0.0,4.0,95,0.00,,,0.00,Wunderground v.1.13,2013-03-26 02:01:00,
2013-03-25 22:06:00,33.3,32.0,29.68,WSW,241,0.0,1.0,95,0.00,,,0.00,Wunderground v.1.13,2013-03-26 02:06:00,
2013-03-25 22:12:00,33.3,32.0,29.68,WSW,241,0.0,1.0,95,0.00,,,0.00,Wunderground v.1.13,2013-03-26 02:12:00,
2013-03-25 22:17:00,33.3,32.0,29.69,WSW,241,0.0,1.0,95,0.00,,,0.00,Wunderground v.1.13,2013-03-26 02:17:00,
2013-03-25 22:23:00,33.3,32.0,29.69,WSW,241,0.0,1.0,95,0.00,,,0.00,Wunderground v.1.13,2013-03-26 02:23:00,
2013-03-25 22:29:00,33.3,32.0,29.69,WSW,241,0.0,1.0,95,0.00,,,0.00,Wunderground v.1.13,2013-03-26 02:29:00,
2013-03-25 22:34:00,33.2,31.9,29.69,WSW,241,0.0,1.0,95,0.00,,,0.00,Wunderground v.1.13,2013-03-26 02:34:00,
2013-03-25 22:39:00,33.2,31.9,29.69,WSW,241,0.0,1.0,95,0.00,,,0.00,Wunderground v.1.13,2013-03-26 02:39:00,
2013-03-25 22:44:00,33.2,31.9,29.69,WSW,241,1.0,1.0,95,0.00,,,0.00,Wunderground v.1.13,2013-03-26 02:44:00,
2013-03-25 22:50:00,33.2,31.9,29.69,WSW,241,1.0,3.0,95,0.00,,,0.00,Wunderground v.1.13,2013-03-26 02:50:00,
2013-03-25 22:55:00,33.2,31.9,29.69,WSW,245,1.0,1.0,95,0.00,,,0.00,Wunderground v.1.13,2013-03-26 02:55:00,
2013-03-25 23:01:00,33.1,31.6,29.69,WSW,245,1.0,2.0,94,0.00,,,0.00,Wunderground v.1.13,2013-03-26 03:01:00,
2013-03-25 23:06:00,33.1,31.6,29.70,WSW,242,0.0,1.0,94,0.00,,,0.00,Wunderground v.1.13,2013-03-26 03:06:00,
2013-03-25 23:12:00,33.1,31.6,29.70,WSW,242,1.0,2.0,94,0.00,,,0.00,Wunderground v.1.13,2013-03-26 03:12:00,
2013-03-25 23:19:00,33.1,31.6,29.70,WSW,242,1.0,1.0,94,0.00,,,0.00,Wunderground v.1.13,2013-03-26 03:19:00,
2013-03-25 23:24:00,33.2,31.7,29.70,WSW,242,0.0,3.0,94,0.00,,,0.00,Wunderground v.1.13,2013-03-26 03:24:00,
2013-03-25 23:29:00,33.2,31.7,29.70,WSW,244,1.0,1.0,94,0.00,,,0.00,Wunderground v.1.13,2013-03-26 03:29:00,
2013-03-25 23:35:00,33.2,31.7,29.71,WSW,244,1.0,1.0,94,0.00,,,0.00,Wunderground v.1.13,2013-03-26 03:35:00,
2013-03-25 23:41:00,33.1,31.6,29.71,WSW,244,0.0,0.0,94,0.00,,,0.00,Wunderground v.1.13,2013-03-26 03:41:00,
2013-03-25 23:47:00,33.1,31.6,29.71,WSW,244,0.0,0.0,94,0.00,,,0.00,Wunderground v.1.13,2013-03-26 03:47:00,
2013-03-25 23:52:00,33.0,31.5,29.71,WSW,244,0.0,0.0,94,0.00,,,0.00,Wunderground v.1.13,2013-03-26 03:52:00,
2013-03-25 23:58:00,33.0,31.5,29.71,WSW,244,0.0,0.0,94,0.00,,,0.00,Wunderground v.1.13,2013-03-26 03:58:00,